Location: Courteuil
(49.2000°N, 2.5333°E)
Time: 12:58:41
(UTC+00:00)

CENTAUR R/B - Pass Details

Date: 06 September 2025
Orbit: 633 x 1548 km, 63.4° (Epoch: 17 December)

Event Time Altitude Azimuth Distance (km) Brightness Sun altitude
Rises 20:35:18 0° 315° (NW) 4,020 7.3 -20.7°
Reaches altitude 10° 20:37:54 10° 320° (NW) 3,178 6.3 -21.0°
Maximum altitude 20:45:43 59° 39° (NE) 1,592 3.5 -22.0°
Enters shadow 20:50:13 31° 104° (ESE) 2,336 4.0 -22.5°
